This is the latest recevied weather packets stored in our database for station/object PU2XNA. If no packets are shown the sender has not sent any weather packets the latest 10 day(s).
| Time | Temp. | Humidity | Pressure | Rain* | Wind** | Luminosity | Snow |
|---|---|---|---|---|---|---|---|
| 1788534903 | 32.78° C | 36% | 1011.5 hPa | - | - | - | - |
| 1788534002 | 32.78° C | 37% | 1011.9 hPa | - | - | - | - |
| 1788533102 | 31.67° C | 39% | 1012.3 hPa | - | - | - | - |
| 1788532203 | 31.67° C | 40% | 1012.5 hPa | - | - | - | - |
| 1788531303 | 31.67° C | 41% | 1012.9 hPa | - | - | - | - |
| 1788530403 | 30.56° C | 45% | 1013.1 hPa | - | - | - | - |
| 1788529503 | 29.44° C | 46% | 1013.4 hPa | - | - | - | - |
| 1788528602 | 30° C | 45% | 1013.5 hPa | - | - | - | - |
| 1788527703 | 28.33° C | 47% | 1013.5 hPa | - | - | - | - |
| 1788526803 | 28.89° C | 47% | 1013.4 hPa | - | - | - | - |
| 1788525902 | 30° C | 45% | 1013.2 hPa | - | - | - | - |
| 1788525002 | 29.44° C | 45% | 1013 hPa | - | - | - | - |
| 1788524102 | 30° C | 43% | 1012.8 hPa | - | - | - | - |
| 1788523203 | 30° C | 43% | 1012.7 hPa | - | - | - | - |
| 1788522303 | 29.44° C | 47% | 1012.7 hPa | - | - | - | - |
| 1788521403 | 28.89° C | 49% | 1012.7 hPa | - | - | - | - |
| 1788520502 | 28.33° C | 49% | 1012.5 hPa | - | - | - | - |
| 1788519602 | 27.22° C | 49% | 1012.5 hPa | - | - | - | - |
| 1788518702 | 27.22° C | 49% | 1012.4 hPa | - | - | - | - |
| 1788517803 | 25.56° C | 52% | 1012.6 hPa | - | - | - | - |
| 1788516903 | 22.78° C | 58% | 1012.5 hPa | - | - | - | - |
| 1788516002 | 17.78° C | 73% | 1012.3 hPa | - | - | - | - |
| 1788515103 | 16.67° C | 76% | 1012 hPa | - | - | - | - |
| 1788514203 | 16.11° C | 79% | 1011.8 hPa | - | - | - | - |
| 1788513303 | 16.11° C | 78% | 1011.9 hPa | - | - | - | - |
* Rain since midnight (hover to see other rain measurements)
** Current wind speed in m/s (hover to see current wind gust speed)